• In Deutschland
  • Länderverzeichnis
  • Für 7 Tage
  • Wassertemperatur
  • Satellitenkarten
  • Wetterkarte
  • Widgets
  • user-avatar
    Anmelden

    Stündliche Wetter Gaborone

    Heute, 22 September, Samstag

    Zeit Temperatur Niederschläge Wind Luftdruck Luftfeuchtigkeit
    00:00 +24°C° 0 mm 2 m/S 679 mmHg 36%
    01:00 +23°C° 0 mm 2 m/S 678 mmHg 38%
    02:00 +23°C° 0 mm 2 m/S 678 mmHg 40%
    03:00 +21°C° 0 mm 2 m/S 678 mmHg 43%
    04:00 +20°C° 0 mm 2 m/S 678 mmHg 47%
    05:00 +20°C° 0 mm 2 m/S 678 mmHg 50%
    06:00 +21°C° 0 mm 4 m/S 678 mmHg 50%
    07:00 +22°C° 0 mm 5 m/S 679 mmHg 50%
    08:00 +23°C° 0 mm 6 m/S 679 mmHg 49%
    09:00 +26°C° 0 mm 6 m/S 679 mmHg 41%
    10:00 +28°C° 0 mm 6 m/S 680 mmHg 34%
    11:00 +32°C° 0 mm 6 m/S 680 mmHg 26%
    12:00 +33°C° 0 mm 6 m/S 679 mmHg 22%
    13:00 +35°C° 0 mm 6 m/S 679 mmHg 17%
    14:00 +36°C° 0 mm 5 m/S 679 mmHg 13%
    15:00 +36°C° 0 mm 5 m/S 678 mmHg 12%
    16:00 +36°C° 0 mm 5 m/S 678 mmHg 11%
    17:00 +36°C° 0 mm 4 m/S 678 mmHg 10%
    18:00 +34°C° 0 mm 4 m/S 678 mmHg 12%
    19:00 +31°C° 0 mm 3 m/S 678 mmHg 14%
    20:00 +29°C° 0 mm 3 m/S 677 mmHg 15%
    21:00 +28°C° 0 mm 3 m/S 678 mmHg 17%
    22:00 +27°C° 0 mm 4 m/S 678 mmHg 20%
    23:00 +27°C° 0 mm 4 m/S 678 mmHg 22%

    Morgen, 23 September, Sonntag

    Zeit Temperatur Niederschläge Wind Luftdruck Luftfeuchtigkeit
    00:00 +26°C° 0 mm 4 m/S 678 mmHg 24%
    01:00 +25°C° 0 mm 4 m/S 678 mmHg 27%
    02:00 +25°C° 0 mm 4 m/S 678 mmHg 29%
    03:00 +23°C° 0 mm 4 m/S 678 mmHg 31%
    04:00 +22°C° 0 mm 4 m/S 678 mmHg 34%
    05:00 +22°C° 0 mm 4 m/S 678 mmHg 37%
    06:00 +23°C° 0 mm 5 m/S 678 mmHg 35%
    07:00 +24°C° 0 mm 6 m/S 679 mmHg 34%
    08:00 +26°C° 0 mm 7 m/S 680 mmHg 33%
    09:00 +27°C° 0 mm 7 m/S 680 mmHg 31%
    10:00 +29°C° 0 mm 7 m/S 680 mmHg 29%
    11:00 +32°C° 0 mm 7 m/S 680 mmHg 27%
    12:00 +33°C° 0 mm 6 m/S 680 mmHg 24%
    13:00 +34°C° 0 mm 5 m/S 679 mmHg 21%
    14:00 +36°C° 0 mm 5 m/S 678 mmHg 18%
    15:00 +36°C° 0 mm 5 m/S 678 mmHg 18%
    16:00 +36°C° 0 mm 4 m/S 677 mmHg 17%
    17:00 +35°C° 0 mm 4 m/S 677 mmHg 16%
    18:00 +34°C° 0 mm 4 m/S 677 mmHg 18%
    19:00 +32°C° 0 mm 4 m/S 677 mmHg 20%
    20:00 +29°C° 0 mm 4 m/S 677 mmHg 22%
    21:00 +28°C° 0 mm 4 m/S 678 mmHg 24%
    22:00 +28°C° 0 mm 4 m/S 678 mmHg 26%
    23:00 +27°C° 0 mm 5 m/S 678 mmHg 28%

    übermorgen, 24 September, Montag

    Zeit Temperatur Niederschläge Wind Luftdruck Luftfeuchtigkeit
    00:00 +26°C° 0 mm 4 m/S 678 mmHg 31%
    01:00 +25°C° 0 mm 4 m/S 678 mmHg 33%
    02:00 +24°C° 0 mm 3 m/S 677 mmHg 36%
    03:00 +24°C° 0 mm 3 m/S 677 mmHg 37%
    04:00 +23°C° 0 mm 2 m/S 677 mmHg 39%
    05:00 +23°C° 0 mm 2 m/S 677 mmHg 40%
    06:00 +24°C° 0 mm 3 m/S 678 mmHg 39%
    07:00 +25°C° 0 mm 4 m/S 679 mmHg 38%
    08:00 +26°C° 0 mm 5 m/S 679 mmHg 37%
    09:00 +28°C° 0 mm 5 m/S 679 mmHg 32%
    10:00 +29°C° 0 mm 5 m/S 679 mmHg 28%
    11:00 +32°C° 0 mm 5 m/S 679 mmHg 23%
    12:00 +34°C° 0 mm 5 m/S 679 mmHg 20%
    13:00 +35°C° 0 mm 5 m/S 678 mmHg 18%
    14:00 +36°C° 0 mm 4 m/S 677 mmHg 15%
    15:00 +36°C° 0 mm 4 m/S 677 mmHg 14%
    16:00 +36°C° 0 mm 3 m/S 676 mmHg 14%
    17:00 +36°C° 0 mm 3 m/S 676 mmHg 13%
    18:00 +34°C° 0 mm 3 m/S 676 mmHg 14%
    19:00 +31°C° 0 mm 3 m/S 676 mmHg 15%
    20:00 +29°C° 0 mm 3 m/S 677 mmHg 16%
    21:00 +29°C° 0 mm 3 m/S 677 mmHg 17%
    22:00 +28°C° 0 mm 3 m/S 677 mmHg 17%
    23:00 +27°C° 0 mm 3 m/S 677 mmHg 17%

    25 September, Dienstag

    Zeit Temperatur Niederschläge Wind Luftdruck Luftfeuchtigkeit
    00:00 +26°C° 0 mm 2 m/S 677 mmHg 19%
    01:00 +25°C° 0 mm 2 m/S 676 mmHg 20%
    02:00 +24°C° 0 mm 2 m/S 676 mmHg 21%
    03:00 +24°C° 0 mm 2 m/S 676 mmHg 23%
    04:00 +23°C° 0 mm 2 m/S 676 mmHg 25%
    05:00 +21°C° 0 mm 2 m/S 676 mmHg 27%
    06:00 +22°C° 0 mm 3 m/S 677 mmHg 27%
    07:00 +23°C° 0 mm 4 m/S 677 mmHg 27%
    08:00 +26°C° 0 mm 5 m/S 678 mmHg 28%
    09:00 +28°C° 0 mm 5 m/S 678 mmHg 25%
    10:00 +30°C° 0 mm 4 m/S 679 mmHg 22%
    11:00 +33°C° 0 mm 4 m/S 679 mmHg 20%
    12:00 +34°C° 0 mm 4 m/S 678 mmHg 17%
    13:00 +35°C° 0 mm 3 m/S 677 mmHg 15%
    14:00 +36°C° 0 mm 3 m/S 676 mmHg 12%
    15:00 +36°C° 0 mm 2 m/S 676 mmHg 12%
    16:00 +36°C° 0 mm 2 m/S 676 mmHg 12%
    17:00 +35°C° 0 mm 1 m/S 675 mmHg 12%
    18:00 +34°C° 0 mm 1 m/S 676 mmHg 13%
    19:00 +32°C° 0 mm 1 m/S 676 mmHg 14%
    20:00 +31°C° 0 mm 1 m/S 676 mmHg 16%
    21:00 +30°C° 0 mm 1 m/S 676 mmHg 16%
    22:00 +30°C° 0 mm 1 m/S 676 mmHg 17%
    23:00 +29°C° 0 mm 1 m/S 676 mmHg 17%

    26 September, Mittwoch

    Zeit Temperatur Niederschläge Wind Luftdruck Luftfeuchtigkeit
    00:00 +28°C° 0 mm 1 m/S 676 mmHg 18%
    01:00 +28°C° 0 mm 1 m/S 676 mmHg 20%
    02:00 +27°C° 0 mm 1 m/S 675 mmHg 21%
    03:00 +26°C° 0 mm 1 m/S 676 mmHg 22%
    04:00 +26°C° 0 mm 1 m/S 676 mmHg 23%
    05:00 +26°C° 0 mm 1 m/S 676 mmHg 24%
    06:00 +27°C° 0 mm 1 m/S 677 mmHg 23%
    07:00 +28°C° 0 mm 2 m/S 678 mmHg 22%
    08:00 +29°C° 0 mm 2 m/S 679 mmHg 21%
    09:00 +31°C° 0 mm 2 m/S 679 mmHg 21%
    10:00 +32°C° 0 mm 2 m/S 679 mmHg 20%
    11:00 +34°C° 0 mm 2 m/S 679 mmHg 20%
    12:00 +35°C° 0 mm 2 m/S 679 mmHg 19%
    13:00 +36°C° 0 mm 2 m/S 678 mmHg 17%
    14:00 +37°C° 0 mm 3 m/S 677 mmHg 16%
    15:00 +37°C° 0 mm 2 m/S 677 mmHg 15%
    16:00 +36°C° 0 mm 1 m/S 677 mmHg 15%
    17:00 +36°C° 0 mm 1 m/S 677 mmHg 14%
    18:00 +34°C° 0 mm 1 m/S 677 mmHg 16%
    19:00 +33°C° 0 mm 1 m/S 677 mmHg 18%
    20:00 +31°C° 0 mm 1 m/S 678 mmHg 20%
    21:00 +30°C° 0 mm 1 m/S 678 mmHg 21%
    22:00 +30°C° 0 mm 1 m/S 678 mmHg 22%
    23:00 +29°C° 0 mm 2 m/S 678 mmHg 24%

    27 September, Donnerstag

    Zeit Temperatur Niederschläge Wind Luftdruck Luftfeuchtigkeit
    00:00 +28°C° 0 mm 2 m/S 678 mmHg 25%
    01:00 +28°C° 0 mm 2 m/S 678 mmHg 27%
    02:00 +27°C° 0 mm 2 m/S 678 mmHg 28%
    03:00 +26°C° 0 mm 2 m/S 678 mmHg 31%
    04:00 +26°C° 0 mm 2 m/S 678 mmHg 33%
    05:00 +25°C° 0 mm 2 m/S 678 mmHg 35%
    06:00 +26°C° 0 mm 4 m/S 679 mmHg 37%
    07:00 +27°C° 0 mm 5 m/S 680 mmHg 38%
    08:00 +28°C° 0 mm 6 m/S 680 mmHg 39%
    09:00 +29°C° 0 mm 7 m/S 681 mmHg 38%
    10:00 +30°C° 0 mm 7 m/S 681 mmHg 38%
    11:00 +30°C° 0 mm 7 m/S 681 mmHg 37%
    12:00 +32°C° 0 mm 7 m/S 680 mmHg 34%
    13:00 +33°C° 0 mm 7 m/S 680 mmHg 32%
    14:00 +34°C° 0 mm 6 m/S 680 mmHg 29%
    15:00 +34°C° 0 mm 6 m/S 679 mmHg 29%
    16:00 +33°C° 0 mm 6 m/S 679 mmHg 29%
    17:00 +33°C° 0 mm 5 m/S 679 mmHg 29%
    18:00 +32°C° 0.1 mm 5 m/S 679 mmHg 32%
    19:00 +30°C° 0.1 mm 5 m/S 679 mmHg 35%
    20:00 +29°C° 0.1 mm 5 m/S 679 mmHg 38%
    21:00 +28°C° 0.1 mm 5 m/S 679 mmHg 41%
    22:00 +27°C° 0.1 mm 5 m/S 679 mmHg 43%
    23:00 +27°C° 0.1 mm 5 m/S 679 mmHg 46%
    Mehr zeigen